No particular awareness of the weather is required.    There are no Weather-warnings


Meteo18 Weather Cam more information Meteo18 Weather Cam


Thunder radar more information blitzortung!


Rain radar more information rain snow radar


Visit our other weather sites:

Template documentation
and downloads

And another site



Weather Underground History page Text

Daily Summary for August 28, 2017 Units:  English    Metric   Both
« Previous Day
Next Day »
Daily Weekly Monthly Yearly Custom
  High: Low: Average:
Temperature: TemperatureC °F 21.6 °F 26.5 °F
Dew Point: DewpointC °F 16.3 °F 18 °F
Humidity: Humidity % 42 % 61 %
Wind Speed: WindSpeedKMH mph 0.0 mph 5.2 mph
Wind Gust: WindSpeedGustKMH mph - -
Wind:- - East
Pressure: PressurehPa in 1015.5 in -
Precipitation: 0.0 in    
Historical Graphs
 
 
Tabular Data for August 28, 2017
Time Temperature Dew Point Pressure Wind Wind Speed Wind Gust Humidity Rainfall Rate (Hourly)
TemperatureC °F DewpointC °F PressurehPa in Calm     Humidity % HourlyPrecipMM in
00:02 23.7 °F 19.2 °F 1017.8 in NE 4.8 mph 11.3 mph 76 % 0.0 in
00:12 23.6 °F 19.1 °F 1017.8 in Calm   12.9 mph 76 % 0.0 in
00:17 23.6 °F 19.1 °F 1017.8 in NE 3.2 mph 12.9 mph 76 % 0.0 in
00:22 23.5 °F 19.0 °F 1017.8 in North 1.6 mph 12.9 mph 76 % 0.0 in
00:32 23.4 °F 18.9 °F 1017.8 in NE 1.6 mph 8.0 mph 76 % 0.0 in
00:42 23.3 °F 18.8 °F 1017.8 in NE 1.6 mph 9.7 mph 76 % 0.0 in
00:47 23.2 °F 18.7 °F 1017.8 in NNE 1.6 mph 9.7 mph 76 % 0.0 in
00:57 23.0 °F 18.7 °F 1017.8 in Calm   9.7 mph 77 % 0.0 in
01:02 23.0 °F 18.7 °F 1017.8 in NE 3.2 mph 9.7 mph 77 % 0.0 in
01:12 23.1 °F 18.6 °F 1017.8 in NNE 4.8 mph 11.3 mph 76 % 0.0 in
01:17 23.1 °F 18.6 °F 1017.8 in Calm   11.3 mph 76 % 0.0 in
01:27 22.9 °F 18.7 °F 1017.8 in Calm   8.0 mph 77 % 0.0 in
01:32 22.9 °F 18.7 °F 1017.8 in Calm   8.0 mph 77 % 0.0 in
01:37 22.8 °F 18.6 °F 1017.8 in North 1.6 mph 8.0 mph 77 % 0.0 in
01:47 22.8 °F 18.6 °F 1017.8 in Calm   6.4 mph 77 % 0.0 in
01:52 22.9 °F 18.7 °F 1017.8 in NNW 3.2 mph 6.4 mph 77 % 0.0 in
02:02 22.9 °F 18.7 °F 1017.5 in Calm   6.4 mph 77 % 0.0 in
02:12 22.7 °F 18.5 °F 1017.5 in Calm   4.8 mph 77 % 0.0 in
02:17 22.6 °F 18.6 °F 1017.5 in Calm   4.8 mph 78 % 0.0 in
02:22 22.5 °F 18.5 °F 1017.5 in Calm   3.2 mph 78 % 0.0 in
02:32 22.4 °F 18.4 °F 1017.5 in Calm   1.6 mph 78 % 0.0 in
02:37 22.4 °F 18.4 °F 1017.5 in North 4.8 mph 4.8 mph 78 % 0.0 in
02:42 22.4 °F 18.4 °F 1017.5 in Calm   3.2 mph 78 % 0.0 in
02:47 22.4 °F 18.4 °F 1017.5 in North 3.2 mph 6.4 mph 78 % 0.0 in
02:52 22.4 °F 18.4 °F 1017.5 in North 6.4 mph 6.4 mph 78 % 0.0 in
02:57 22.4 °F 18.4 °F 1017.2 in North 4.8 mph 6.4 mph 78 % 0.0 in
03:02 22.4 °F 18.4 °F 1017.5 in NNE 1.6 mph 6.4 mph 78 % 0.0 in
03:12 22.4 °F 18.4 °F 1017.2 in Calm   8.0 mph 78 % 0.0 in
03:17 22.3 °F 18.3 °F 1017.2 in NNW 1.6 mph 8.0 mph 78 % 0.0 in
03:22 22.4 °F 18.4 °F 1017.2 in NNE 3.2 mph 4.8 mph 78 % 0.0 in
03:27 22.4 °F 18.4 °F 1017.2 in North 4.8 mph 6.4 mph 78 % 0.0 in
03:32 22.4 °F 18.4 °F 1017.2 in ENE 3.2 mph 6.4 mph 78 % 0.0 in
03:37 22.4 °F 18.4 °F 1017.2 in North 8.0 mph 14.5 mph 78 % 0.0 in
03:42 22.4 °F 18.4 °F 1016.8 in NNW 4.8 mph 14.5 mph 78 % 0.0 in
03:52 22.4 °F 18.4 °F 1016.8 in NE 4.8 mph 14.5 mph 78 % 0.0 in
03:57 22.4 °F 18.4 °F 1016.8 in ENE 4.8 mph 9.7 mph 78 % 0.0 in
04:02 22.4 °F 18.4 °F 1016.8 in NNW 4.8 mph 9.7 mph 78 % 0.0 in
04:12 22.3 °F 18.3 °F 1016.8 in North 1.6 mph 9.7 mph 78 % 0.0 in
04:17 22.3 °F 18.3 °F 1016.8 in NNW 4.8 mph 8.0 mph 78 % 0.0 in
04:22 22.3 °F 18.3 °F 1016.8 in North 4.8 mph 9.7 mph 78 % 0.0 in
04:32 22.2 °F 18.2 °F 1016.8 in NNE 1.6 mph 11.3 mph 78 % 0.0 in
04:37 22.2 °F 18.2 °F 1016.8 in NE 1.6 mph 8.0 mph 78 % 0.0 in
04:42 22.1 °F 18.1 °F 1016.8 in ENE 1.6 mph 6.4 mph 78 % 0.0 in
04:47 22.1 °F 18.3 °F 1016.8 in NNE 3.2 mph 6.4 mph 79 % 0.0 in
04:57 22.2 °F 18.2 °F 1016.5 in NNE 4.8 mph 6.4 mph 78 % 0.0 in
05:02 22.2 °F 18.2 °F 1016.5 in NNW 3.2 mph 8.0 mph 78 % 0.0 in
05:12 22.0 °F 18.0 °F 1016.5 in NE 1.6 mph 8.0 mph 78 % 0.0 in
05:17 22.1 °F 18.1 °F 1016.5 in NNE 4.8 mph 8.0 mph 78 % 0.0 in
05:22 22.1 °F 18.1 °F 1016.5 in NNE 3.2 mph 11.3 mph 78 % 0.0 in
05:27 22.1 °F 18.1 °F 1016.5 in NE 4.8 mph 11.3 mph 78 % 0.0 in
05:32 22.0 °F 18.0 °F 1016.5 in NE 3.2 mph 11.3 mph 78 % 0.0 in
05:42 21.7 °F 17.9 °F 1016.5 in Calm   4.8 mph 79 % 0.0 in
05:47 21.6 °F 17.8 °F 1016.1 in Calm   4.8 mph 79 % 0.0 in
05:57 21.7 °F 17.7 °F 1016.5 in NNE 1.6 mph 4.8 mph 78 % 0.0 in
06:02 21.8 °F 17.8 °F 1016.5 in Calm   6.4 mph 78 % 0.0 in
06:12 22.0 °F 17.8 °F 1016.5 in NNE 1.6 mph 4.8 mph 77 % 0.0 in
06:17 22.1 °F 17.7 °F 1016.5 in NNE 4.8 mph 4.8 mph 76 % 0.0 in
06:27 22.1 °F 17.7 °F 1016.5 in NNE 1.6 mph 4.8 mph 76 % 0.0 in
06:32 22.1 °F 17.7 °F 1016.5 in North 3.2 mph 4.8 mph 76 % 0.0 in
06:42 22.1 °F 17.9 °F 1016.5 in NNW 1.6 mph 6.4 mph 77 % 0.0 in
06:47 22.0 °F 17.8 °F 1016.5 in Calm   6.4 mph 77 % 0.0 in
06:52 21.9 °F 17.7 °F 1016.5 in Calm   6.4 mph 77 % 0.0 in
07:02 21.9 °F 17.7 °F 1016.5 in Calm   6.4 mph 77 % 0.0 in
07:12 21.9 °F 17.7 °F 1016.8 in Calm   3.2 mph 77 % 0.0 in
07:17 22.0 °F 17.6 °F 1016.8 in Calm   3.2 mph 76 % 0.0 in
07:22 21.9 °F 17.7 °F 1016.8 in Calm     77 % 0.0 in
07:32 22.0 °F 17.8 °F 1016.8 in NNE 3.2 mph 6.4 mph 77 % 0.0 in
07:42 21.9 °F 17.9 °F 1016.8 in North 3.2 mph 6.4 mph 78 % 0.0 in
07:52 22.1 °F 17.9 °F 1016.8 in Calm   8.0 mph 77 % 0.0 in
07:57 22.1 °F 17.9 °F 1016.8 in NNE 3.2 mph 8.0 mph 77 % 0.0 in
08:02 22.2 °F 18.0 °F 1016.8 in Calm   9.7 mph 77 % 0.0 in
08:12 22.5 °F 17.8 °F 1017.2 in Calm   8.0 mph 75 % 0.0 in
08:17 22.6 °F 17.9 °F 1017.2 in Calm   8.0 mph 75 % 0.0 in
08:27 22.9 °F 17.8 °F 1017.2 in NNE 1.6 mph 8.0 mph 73 % 0.0 in
08:32 22.9 °F 17.8 °F 1017.2 in Calm   4.8 mph 73 % 0.0 in
08:37 23.1 °F 18.4 °F 1017.5 in Calm   4.8 mph 75 % 0.0 in
08:42 23.1 °F 18.4 °F 1017.5 in ENE 1.6 mph 3.2 mph 75 % 0.0 in
08:47 23.1 °F 18.2 °F 1017.5 in ENE 3.2 mph 3.2 mph 74 % 0.0 in
08:57 22.9 °F 18.2 °F 1017.5 in North 6.4 mph 6.4 mph 75 % 0.0 in
09:02 23.2 °F 18.5 °F 1017.5 in NNE 6.4 mph 11.3 mph 75 % 0.0 in
09:12 23.4 °F 18.3 °F 1017.5 in NNE 4.8 mph 12.9 mph 73 % 0.0 in
09:17 23.6 °F 18.5 °F 1017.5 in ENE 6.4 mph 12.9 mph 73 % 0.0 in
09:22 23.7 °F 18.6 °F 1017.5 in NE 4.8 mph 12.9 mph 73 % 0.0 in
09:27 24.1 °F 18.5 °F 1017.8 in North 4.8 mph 12.9 mph 71 % 0.0 in
09:32 24.3 °F 18.7 °F 1017.8 in NNW 1.6 mph 11.3 mph 71 % 0.0 in
09:37 24.6 °F 18.5 °F 1017.8 in NE 4.8 mph 11.3 mph 69 % 0.0 in
09:42 24.8 °F 18.5 °F 1017.8 in NE 1.6 mph 9.7 mph 68 % 0.0 in
09:52 25.1 °F 18.8 °F 1017.8 in Calm   9.7 mph 68 % 0.0 in
09:57 25.3 °F 18.7 °F 1017.8 in NE 4.8 mph 9.7 mph 67 % 0.0 in
10:02 25.2 °F 18.6 °F 1017.8 in NNE 3.2 mph 9.7 mph 67 % 0.0 in
10:12 25.3 °F 18.7 °F 1017.8 in East 3.2 mph 6.4 mph 67 % 0.0 in
10:17 25.5 °F 18.9 °F 1017.8 in Calm   6.4 mph 67 % 0.0 in
10:27 26.1 °F 19.0 °F 1017.8 in Calm   8.0 mph 65 % 0.0 in
10:32 26.6 °F 19.2 °F 1017.8 in Calm   6.4 mph 64 % 0.0 in
10:42 26.5 °F 18.9 °F 1017.8 in East 3.2 mph 11.3 mph 63 % 0.0 in
10:47 26.7 °F 19.1 °F 1017.8 in ENE 6.4 mph 11.3 mph 63 % 0.0 in
10:52 26.7 °F 18.8 °F 1017.8 in East 4.8 mph 11.3 mph 62 % 0.0 in
10:57 26.9 °F 19.3 °F 1017.8 in North 4.8 mph 11.3 mph 63 % 0.0 in
11:02 26.8 °F 19.2 °F 1017.8 in North 8.0 mph 11.3 mph 63 % 0.0 in
11:12 27.2 °F 19.3 °F 1017.8 in ENE 3.2 mph 14.5 mph 62 % 0.0 in
11:17 27.3 °F 19.4 °F 1017.8 in NE 8.0 mph 14.5 mph 62 % 0.0 in
11:22 27.4 °F 19.2 °F 1017.8 in NE 8.0 mph 12.9 mph 61 % 0.0 in
11:27 27.6 °F 19.7 °F 1017.8 in ENE 6.4 mph 12.9 mph 62 % 0.0 in
11:32 28.0 °F 19.8 °F 1017.8 in NE 1.6 mph 11.3 mph 61 % 0.0 in
11:42 28.3 °F 18.7 °F 1017.8 in NE 3.2 mph 14.5 mph 56 % 0.0 in
11:47 28.4 °F 18.8 °F 1017.8 in ENE 6.4 mph 14.5 mph 56 % 0.0 in
11:52 28.5 °F 18.9 °F 1017.8 in NNE 6.4 mph 14.5 mph 56 % 0.0 in
11:57 28.8 °F 18.9 °F 1017.8 in NNE 8.0 mph 14.5 mph 55 % 0.0 in
12:02 29.1 °F 19.1 °F 1017.8 in ENE 12.9 mph 16.1 mph 55 % 0.0 in
12:12 29.2 °F 18.9 °F 1017.8 in NE 9.7 mph 16.1 mph 54 % 0.0 in
12:17 29.1 °F 18.8 °F 1017.8 in NNE 11.3 mph 16.1 mph 54 % 0.0 in
12:22 29.1 °F 19.1 °F 1017.8 in East 4.8 mph 19.3 mph 55 % 0.0 in
12:32 29.2 °F 18.6 °F 1017.8 in ENE 8.0 mph 19.3 mph 53 % 0.0 in
12:37 29.2 °F 18.9 °F 1017.5 in NE 3.2 mph 12.9 mph 54 % 0.0 in
12:42 29.7 °F 19.1 °F 1017.5 in NE 6.4 mph 12.9 mph 53 % 0.0 in
12:47 30.0 °F 19.4 °F 1017.5 in NNW 8.0 mph 12.9 mph 53 % 0.0 in
12:52 30.2 °F 19.3 °F 1017.5 in North 9.7 mph 16.1 mph 52 % 0.0 in
13:02 30.3 °F 19.0 °F 1017.5 in NNE 12.9 mph 16.1 mph 51 % 0.0 in
13:12 30.7 °F 19.1 °F 1017.5 in NNE 11.3 mph 19.3 mph 50 % 0.0 in
13:17 30.7 °F 18.4 °F 1017.5 in NNE 9.7 mph 19.3 mph 48 % 0.0 in
13:22 30.5 °F 18.9 °F 1017.2 in East 3.2 mph 17.7 mph 50 % 0.0 in
13:32 30.6 °F 19.0 °F 1017.2 in ENE 8.0 mph 16.1 mph 50 % 0.0 in
13:42 30.4 °F 18.8 °F 1017.2 in NE 11.3 mph 14.5 mph 50 % 0.0 in
13:52 30.5 °F 18.9 °F 1017.2 in ENE 8.0 mph 11.3 mph 50 % 0.0 in
13:57 30.6 °F 18.7 °F 1017.2 in ENE 8.0 mph 11.3 mph 49 % 0.0 in
14:02 30.6 °F 18.7 °F 1017.2 in NE 11.3 mph 12.9 mph 49 % 0.0 in
14:12 30.6 °F 18.0 °F 1017.2 in NE 9.7 mph 12.9 mph 47 % 0.0 in
14:17 30.7 °F 18.4 °F 1017.2 in North 6.4 mph 12.9 mph 48 % 0.0 in
14:22 30.7 °F 18.1 °F 1017.2 in NNE 11.3 mph 12.9 mph 47 % 0.0 in
14:27 30.6 °F 18.3 °F 1016.8 in NE 3.2 mph 12.9 mph 48 % 0.0 in
14:32 30.8 °F 18.2 °F 1016.8 in NE 11.3 mph 14.5 mph 47 % 0.0 in
14:37 30.9 °F 17.9 °F 1016.8 in NNE 11.3 mph 14.5 mph 46 % 0.0 in
14:42 31.2 °F 18.2 °F 1016.8 in NE 11.3 mph 16.1 mph 46 % 0.0 in
14:47 31.5 °F 18.1 °F 1016.8 in NNE 14.5 mph 16.1 mph 45 % 0.0 in
14:52 31.7 °F 17.9 °F 1016.8 in NNE 3.2 mph 16.1 mph 44 % 0.0 in
15:02 31.9 °F 17.4 °F 1016.8 in NNE 6.4 mph 16.1 mph 42 % 0.0 in
15:07 31.9 °F 18.1 °F 1016.5 in NNE 8.0 mph 16.1 mph 44 % 0.0 in
15:12 32.1 °F 17.9 °F 1016.5 in East 6.4 mph 16.1 mph 43 % 0.0 in
15:17 32.0 °F 17.9 °F 1016.5 in NNE 11.3 mph 16.1 mph 43 % 0.0 in
15:22 32.0 °F 18.9 °F 1016.5 in NNE 8.0 mph 20.9 mph 46 % 0.0 in
15:32 32.1 °F 18.3 °F 1016.1 in NNW 8.0 mph 17.7 mph 44 % 0.0 in
15:37 32.3 °F 18.8 °F 1016.1 in NE 16.1 mph 17.7 mph 45 % 0.0 in
15:42 32.4 °F 17.8 °F 1016.1 in NNE 6.4 mph 17.7 mph 42 % 0.0 in
15:47 31.9 °F 18.5 °F 1016.1 in NE 9.7 mph 20.9 mph 45 % 0.0 in
15:52 31.9 °F 19.2 °F 1016.1 in ENE 8.0 mph 20.9 mph 47 % 0.0 in
16:02 31.9 °F 19.2 °F 1016.1 in NE 8.0 mph 20.9 mph 47 % 0.0 in
16:12 31.9 °F 18.5 °F 1016.1 in NE 14.5 mph 19.3 mph 45 % 0.0 in
16:17 31.8 °F 18.7 °F 1016.1 in North 12.9 mph 22.5 mph 46 % 0.0 in
16:27 32.1 °F 18.3 °F 1016.1 in NNE 3.2 mph 19.3 mph 44 % 0.0 in
16:32 32.0 °F 18.9 °F 1015.8 in ENE 14.5 mph 19.3 mph 46 % 0.0 in
16:37 32.1 °F 18.7 °F 1015.8 in WNW 8.0 mph 20.9 mph 45 % 0.0 in
16:47 31.7 °F 18.7 °F 1015.8 in NNE 6.4 mph 20.9 mph 46 % 0.0 in
16:52 31.7 °F 18.7 °F 1015.8 in NNW 6.4 mph 20.9 mph 46 % 0.0 in
16:57 31.8 °F 18.7 °F 1015.8 in ENE 11.3 mph 17.7 mph 46 % 0.0 in
17:02 31.8 °F 18.7 °F 1015.8 in NE 12.9 mph 17.7 mph 46 % 0.0 in
17:12 32.2 °F 18.8 °F 1015.5 in NNE 9.7 mph 19.3 mph 45 % 0.0 in
17:17 32.2 °F 18.8 °F 1015.8 in NNE 9.7 mph 22.5 mph 45 % 0.0 in
17:22 32.3 °F 18.8 °F 1015.5 in NE 12.9 mph 22.5 mph 45 % 0.0 in
17:27 32.2 °F 18.4 °F 1015.5 in NW 1.6 mph 22.5 mph 44 % 0.0 in
17:32 32.1 °F 18.7 °F 1015.5 in NE 9.7 mph 22.5 mph 45 % 0.0 in
17:37 32.2 °F 18.4 °F 1015.5 in North 8.0 mph 20.9 mph 44 % 0.0 in
17:42 32.3 °F 18.5 °F 1015.5 in NNW 6.4 mph 20.9 mph 44 % 0.0 in
17:47 32.2 °F 18.4 °F 1015.5 in NE 12.9 mph 20.9 mph 44 % 0.0 in
17:52 32.2 °F 18.4 °F 1015.5 in North 9.7 mph 19.3 mph 44 % 0.0 in
17:57 32.2 °F 18.4 °F 1015.5 in NNW 8.0 mph 19.3 mph 44 % 0.0 in
18:02 31.9 °F 18.1 °F 1015.5 in NNE 9.7 mph 19.3 mph 44 % 0.0 in
18:12 31.9 °F 18.1 °F 1015.5 in NE 11.3 mph 17.7 mph 44 % 0.0 in
18:17 31.8 °F 18.4 °F 1015.5 in ENE 6.4 mph 19.3 mph 45 % 0.0 in
18:22 31.8 °F 18.4 °F 1015.5 in ENE 6.4 mph 19.3 mph 45 % 0.0 in
18:27 31.8 °F 18.0 °F 1015.5 in NE 9.7 mph 17.7 mph 44 % 0.0 in
18:32 31.7 °F 17.9 °F 1015.5 in NNW 8.0 mph 17.7 mph 44 % 0.0 in
18:42 31.6 °F 17.5 °F 1015.5 in NNE 9.7 mph 17.7 mph 43 % 0.0 in
18:52 31.5 °F 17.0 °F 1015.5 in NNE 11.3 mph 17.7 mph 42 % 0.0 in
18:57 31.3 °F 17.2 °F 1015.5 in North 9.7 mph 17.7 mph 43 % 0.0 in
19:02 31.1 °F 17.0 °F 1015.5 in NE 4.8 mph 14.5 mph 43 % 0.0 in
19:12 30.9 °F 17.2 °F 1015.5 in NE 4.8 mph 19.3 mph 44 % 0.0 in
19:17 30.8 °F 17.1 °F 1015.5 in NNW 3.2 mph 19.3 mph 44 % 0.0 in
19:22 30.7 °F 17.0 °F 1015.5 in NNE 3.2 mph 16.1 mph 44 % 0.0 in
19:32 30.5 °F 17.6 °F 1015.5 in NE 9.7 mph 16.1 mph 46 % 0.0 in
19:37 30.3 °F 17.4 °F 1015.5 in NE 3.2 mph 16.1 mph 46 % 0.0 in
19:42 30.2 °F 17.6 °F 1015.5 in NNE 8.0 mph 16.1 mph 47 % 0.0 in
19:47 30.0 °F 17.8 °F 1015.5 in NNE 8.0 mph 16.1 mph 48 % 0.0 in
19:52 29.8 °F 17.6 °F 1015.5 in NE 6.4 mph 16.1 mph 48 % 0.0 in
19:57 29.6 °F 17.8 °F 1015.5 in NNE 3.2 mph 16.1 mph 49 % 0.0 in
20:02 29.3 °F 17.5 °F 1015.5 in North 12.9 mph 16.1 mph 49 % 0.0 in
20:12 28.9 °F 17.1 °F 1015.5 in NE 1.6 mph 17.7 mph 49 % 0.0 in
20:17 28.7 °F 17.2 °F 1015.5 in ENE 1.6 mph 17.7 mph 50 % 0.0 in
20:22 28.6 °F 17.2 °F 1015.5 in NNE 8.0 mph 17.7 mph 50 % 0.0 in
20:32 28.2 °F 17.1 °F 1015.8 in NNE 6.4 mph 19.3 mph 51 % 0.0 in
20:37 28.1 °F 17.0 °F 1015.8 in NNE 4.8 mph 19.3 mph 51 % 0.0 in
20:42 27.9 °F 16.8 °F 1015.8 in NE 6.4 mph 14.5 mph 51 % 0.0 in
20:47 27.8 °F 16.7 °F 1015.8 in ENE 9.7 mph 14.5 mph 51 % 0.0 in
20:52 27.7 °F 16.6 °F 1015.8 in NNE 4.8 mph 16.1 mph 51 % 0.0 in
21:12 27.2 °F 16.5 °F 1015.8 in NE 6.4 mph 14.5 mph 52 % 0.0 in
21:17 27.1 °F 16.4 °F 1015.8 in NNE 9.7 mph 16.1 mph 52 % 0.0 in
21:22 27.1 °F 16.7 °F 1015.8 in NNE 9.7 mph 16.1 mph 53 % 0.0 in
21:27 27.0 °F 16.6 °F 1015.8 in ENE 4.8 mph 16.1 mph 53 % 0.0 in
21:32 26.9 °F 16.8 °F 1015.8 in ENE 3.2 mph 17.7 mph 54 % 0.0 in
21:37 26.9 °F 16.8 °F 1016.1 in NNE 11.3 mph 17.7 mph 54 % 0.0 in
21:42 26.8 °F 16.7 °F 1016.1 in NNE 9.7 mph 17.7 mph 54 % 0.0 in
21:47 26.7 °F 16.9 °F 1016.1 in NE 4.8 mph 17.7 mph 55 % 0.0 in
21:57 26.5 °F 16.7 °F 1016.1 in NE 6.4 mph 17.7 mph 55 % 0.0 in
22:02 26.3 °F 16.8 °F 1016.1 in ENE 3.2 mph 17.7 mph 56 % 0.0 in
22:12 26.1 °F 16.9 °F 1016.1 in NNE 4.8 mph 17.7 mph 57 % 0.0 in
22:17 25.9 °F 16.7 °F 1016.1 in NNE 9.7 mph 16.1 mph 57 % 0.0 in
22:22 25.9 °F 16.7 °F 1016.1 in NNW 6.4 mph 16.1 mph 57 % 0.0 in
22:32 25.8 °F 16.6 °F 1016.1 in NNE 8.0 mph 16.1 mph 57 % 0.0 in
22:37 25.8 °F 16.9 °F 1016.1 in NNE 9.7 mph 14.5 mph 58 % 0.0 in
22:47 25.6 °F 16.7 °F 1016.1 in NNE 6.4 mph 14.5 mph 58 % 0.0 in
22:52 25.4 °F 16.8 °F 1016.1 in NE 4.8 mph 14.5 mph 59 % 0.0 in
22:57 25.4 °F 16.8 °F 1016.1 in ENE 4.8 mph 12.9 mph 59 % 0.0 in
23:02 25.3 °F 16.7 °F 1016.1 in NNE 6.4 mph 11.3 mph 59 % 0.0 in
23:12 25.1 °F 16.5 °F 1016.1 in North 3.2 mph 11.3 mph 59 % 0.0 in
23:17 25.0 °F 16.7 °F 1016.1 in North 1.6 mph 11.3 mph 60 % 0.0 in
23:22 24.8 °F 16.5 °F 1016.5 in NE 6.4 mph 9.7 mph 60 % 0.0 in
23:27 24.8 °F 16.5 °F 1016.5 in NE 6.4 mph 9.7 mph 60 % 0.0 in
23:32 24.8 °F 16.5 °F 1016.1 in NE 3.2 mph 8.0 mph 60 % 0.0 in
23:37 24.7 °F 16.4 °F 1016.1 in North 1.6 mph 9.7 mph 60 % 0.0 in
23:42 24.6 °F 16.3 °F 1016.1 in NE 4.8 mph 9.7 mph 60 % 0.0 in
23:47 24.6 °F 16.6 °F 1016.1 in NE 3.2 mph 12.9 mph 61 % 0.0 in
23:52 24.6 °F 16.6 °F 1016.1 in NE 3.2 mph 12.9 mph 61 % 0.0 in
23:57 24.6 °F 16.6 °F 1016.1 in NE 3.2 mph 12.9 mph 61 % 0.0 in
Meteo18
Compliments of Weather Underground - 4 mb

Script developed by  Jim McMurry - jmcmurry@mwt.net Adapted for the template by  Wim van der Kuil - Leuven-Template.eu

You find our weather info also at:

European Weather Network

Weather Underground

Equipment we use:

Weather-station
Davis Vue

Weather-program
Meteobridge

Weather-server
Raspberry PI 2 B+

Provider
1 and 1

Davis Vue

Meteobridge

Raspberry PI 2 B+

1 and 1